Wind_Speed
2 5 8 11 7 7 15 15 4 2 5 3 7 4 6 12 5 4 7 9 23 29 31 32 30 31 31 30 28 27 27 26 26 25 24 24 23 23 22 21 21 23 24 24 24 23 22 22 22
7 6 10 7 8 12 12 18 4 7 10 3 3 7 10 11 4 11 9 12 24 29 31 29 30 30 30 31 30 28 28 27 27 26 24 23 22 21 20 20 21 24 24 23 21 20 20 20 20
5 8 8 6 12 14 11 7 3 8 4 4 4 2 4 3 2 6 11 18 26 28 30 29 32 29 29 31 32 30 29 28 27 26 24 23 21 21 20 21 22 24 23 20 19 19 18 17 18
7 9 6 9 17 13 13 6 5 6 5 2 4 8 2 8 2 3 12 22 28 28 30 31 34 30 28 31 33 31 30 29 27 26 24 23 21 20 21 22 23 23 21 19 19 18 16 15 17
12 8 12 15 18 19 16 7 6 10 6 6 7 7 4 7 2 4 14 22 27 29 28 32 35 32 30 31 33 32 30 29 27 25 23 23 22 21 21 22 22 22 21 19 18 17 15 14 16
8 7 13 15 19 18 14 5 10 13 13 11 9 12 6 5 3 5 13 22 25 29 26 27 35 32 30 31 33 32 30 29 28 25 23 22 22 22 21 22 22 21 20 19 16 15 14 14 15
14 12 16 20 20 17 11 2 7 13 14 14 11 13 1 7 4 6 14 21 24 27 23 27 27 32 31 32 32 31 31 30 27 25 23 22 21 21 21 21 21 20 19 17 15 13 12 12 13
11 13 23 19 18 22 17 11 8 14 14 13 3 7 4 10 4 8 15 21 24 26 23 28 26 26 27 30 32 31 30 29 27 25 23 22 21 21 21 21 19 19 17 15 13 12 11 11 12
12 13 16 22 21 18 14 8 7 7 12 12 10 9 11 7 4 10 16 20 24 24 25 28 28 27 26 26 32 31 30 28 26 25 23 22 17 19 19 17 19 18 17 14 13 11 10 10 11
15 14 24 18 19 17 16 17 15 18 14 13 14 7 3 1 5 10 16 20 24 25 28 30 30 30 28 27 29 28 27 26 24 22 23 20 18 18 18 17 18 19 17 15 13 11 10 10 8
20 23 21 22 22 12 18 20 18 20 22 14 11 11 13 6 4 9 15 20 24 25 27 30 30 31 31 29 28 28 27 25 24 23 23 21 19 19 19 15 17 16 17 13 13 13 11 10 10
23 25 23 22 22 23 20 19 22 20 20 20 19 10 9 10 6 9 14 20 24 27 29 30 30 31 31 30 30 29 28 28 26 26 26 22 22 21 20 17 18 17 16 15 14 13 12 10 8
21 22 23 21 22 23 20 23 27 28 22 21 20 18 17 15 14 13 13 18 22 28 32 32 32 31 32 29 31 30 29 28 27 27 28 24 23 22 20 19 19 18 17 17 16 14 12 12 10
18 24 23 21 22 22 23 23 21 35 24 26 24 24 23 22 19 20 15 16 21 28 33 34 34 33 32 30 31 28 28 28 27 27 28 24 24 23 22 20 20 19 18 17 16 14 13 13 12
17 22 23 25 21 26 23 27 30 36 25 26 27 23 24 25 27 25 28 26 24 28 33 35 34 35 34 31 31 29 29 28 28 27 27 27 26 25 22 21 20 19 18 17 16 14 13 12 12
22 23 24 23 22 24 28 32 27 26 26 25 26 25 23 26 26 27 30 29 29 29 34 37 37 36 36 34 32 31 30 28 28 26 27 29 27 24 24 22 21 20 18 18 17 16 15 14 13
19 20 27 27 21 19 20 28 20 19 21 24 24 24 24 24 26 30 31 28 28 28 34 36 39 38 39 36 32 32 29 29 28 27 27 30 28 26 26 23 22 21 20 19 18 17 17 15 15
19 20 22 23 19 18 24 29 24 23 21 21 23 19 25 22 22 24 29 32 31 29 33 36 39 38 40 36 33 32 30 30 29 29 28 29 30 28 28 25 23 24 22 21 20 19 18 18 17
17 20 24 24 24 24 25 27 26 24 24 24 23 21 22 23 23 36 39 31 34 32 33 36 38 41 38 38 36 33 34 33 32 31 29 29 32 31 30 26 26 27 25 23 22 20 19 19 18
17 19 21 23 22 21 25 28 28 26 27 25 27 26 23 22 23 19 22 28 28 31 32 36 39 40 41 40 39 35 35 32 33 30 31 30 31 31 31 29 28 29 26 25 25 24 21 21 20
17 19 20 22 22 23 23 28 27 29 28 28 27 26 28 24 24 23 23 26 27 31 29 34 39 40 43 41 37 34 31 29 30 31 31 32 32 34 34 33 27 29 28 27 27 28 25 23 22
17 18 19 21 19 18 19 20 24 23 24 25 30 30 28 29 28 27 26 25 27 27 29 33 37 39 43 42 38 39 35 33 33 33 32 33 34 35 34 33 33 29 31 27 31 29 29 24 23
15 15 18 21 21 22 23 15 18 20 24 25 26 26 27 28 29 29 29 35 32 30 29 31 34 37 40 44 41 39 36 35 32 29 30 36 33 36 35 35 33 31 32 31 31 31 32 30 24
15 16 19 22 19 16 22 20 20 20 22 22 21 23 26 22 23 27 35 40 36 27 30 31 35 38 42 41 46 38 39 35 32 33 33 33 36 35 39 37 37 37 34 34 32 33 33 30 32
10 15 9 12 7 11 17 16 16 12 18 14 15 18 17 24 19 19 24 25 33 32 29 32 34 35 39 41 42 43 39 39 37 35 35 33 34 37 40 41 40 38 38 34 34 33 33 36 30
16 14 6 8 11 16 19 12 7 19 22 20 18 22 23 25 24 15 21 22 30 32 29 34 35 35 36 40 43 45 38 37 37 37 34 35 35 39 35 43 41 42 39 37 35 35 34 34 37
13 13 15 13 18 13 13 13 7 24 21 21 22 21 22 23 25 27 21 20 30 30 34 26 36 37 35 39 39 40 42 39 38 35 37 38 35 34 38 39 42 41 40 41 39 37 36 35 35
9 11 9 3 6 9 13 12 8 11 21 21 22 24 22 21 25 25 27 20 29 32 33 29 27 35 38 36 39 41 43 42 40 39 37 35 37 35 37 38 42 42 42 41 41 39 39 38 37
14 11 3 5 7 6 8 10 12 16 23 21 19 21 20 20 23 25 28 27 30 30 28 30 32 33 36 38 38 40 41 43 41 37 40 40 36 35 35 40 40 41 41 42 41 42 38 41 38
13 6 11 4 11 13 13 17 14 21 24 22 22 20 19 18 21 25 29 19 14 23 29 28 25 32 36 36 37 39 40 39 40 42 39 39 38 36 38 35 38 38 40 40 43 42 40 40 41
Wind_Direction
285 243 264 261 243 230 258 240 271 248 217 34 339 232 290 298 16 37 123 128 147 150 159 166 173 175 178 180 179 174 169 165 160 155 152 147 142 139 137 132 129 126 123 117 111 106 103 99 96
265 243 244 278 254 247 244 221 136 237 69 352 255 260 261 271 298 111 138 146 154 154 159 161 176 178 180 182 182 177 172 169 164 161 156 152 148 145 143 138 136 133 129 123 117 112 109 104 98
254 246 267 239 238 257 275 68 286 126 141 267 263 240 345 15 79 94 115 157 158 159 160 166 174 178 182 183 184 180 175 172 168 165 160 156 155 152 148 143 141 138 135 129 124 117 111 110 106
235 215 243 250 257 254 283 30 28 292 203 223 314 283 211 35 24 30 145 159 159 162 163 175 173 177 178 180 184 181 178 174 171 168 163 160 158 155 149 147 145 143 140 134 127 120 114 116 114
241 265 254 240 248 255 274 291 328 303 270 224 234 293 280 112 95 133 161 166 164 164 165 175 175 177 177 179 182 183 180 176 173 170 166 163 161 158 153 151 150 149 147 140 134 125 116 120 121
240 249 249 252 249 251 249 296 286 273 273 226 247 266 263 82 73 149 168 169 169 166 161 172 176 179 178 179 181 184 181 177 175 173 169 166 164 161 158 156 156 156 151 146 139 131 122 120 130
248 249 250 265 272 270 270 203 266 275 265 245 246 249 150 113 63 164 170 170 171 169 163 168 171 178 181 181 183 184 181 179 177 175 171 170 168 163 161 161 163 162 157 153 148 140 130 122 137
254 263 267 256 261 270 281 313 246 256 264 244 265 257 236 76 111 167 168 171 172 173 171 170 171 170 171 180 183 183 182 181 179 177 173 172 170 167 166 167 169 168 166 162 158 153 147 137 138
247 250 249 255 255 260 272 272 258 292 278 275 248 257 35 46 145 171 168 171 176 178 178 175 173 172 170 169 178 181 183 181 180 177 176 171 164 165 171 166 177 175 175 174 170 167 164 156 149
235 247 248 253 266 282 278 268 272 288 270 231 251 157 228 25 176 190 182 179 184 185 183 180 177 175 172 172 175 173 177 177 174 174 175 168 170 171 169 177 184 179 181 182 181 178 173 159 164
234 247 263 281 286 273 274 271 270 264 265 252 259 231 182 191 224 213 202 190 193 191 188 185 181 177 176 174 174 174 176 179 180 177 176 176 174 176 173 176 178 179 185 184 185 184 178 197 181
251 259 267 274 281 281 270 261 264 263 264 274 273 283 288 196 224 230 221 202 193 193 194 190 186 182 182 176 178 179 178 180 183 183 180 181 176 177 184 180 181 182 186 189 187 188 193 193 197
270 275 281 282 277 273 268 261 274 272 263 267 275 275 272 265 263 234 231 216 202 199 195 194 189 185 188 180 181 182 183 184 186 185 185 185 186 180 187 183 184 187 188 191 194 193 191 188 184
287 298 290 292 283 279 271 268 265 262 257 261 263 261 261 259 254 254 226 224 208 204 196 196 192 188 191 188 183 185 186 186 188 187 190 191 190 183 187 185 189 191 190 193 195 194 191 188 183
290 288 280 265 258 255 258 258 247 261 271 272 267 243 251 253 249 244 241 242 216 210 198 196 195 191 194 196 186 188 190 188 192 191 190 194 193 183 191 190 193 194 192 192 193 192 193 190 186
274 270 268 269 258 253 236 255 253 252 259 259 255 254 244 254 255 247 235 236 230 208 206 196 198 193 193 198 191 193 191 194 194 195 192 195 196 189 192 193 194 194 193 193 193 191 192 194 192
248 257 266 273 267 263 242 256 267 265 256 264 259 259 247 244 243 246 247 245 231 212 205 199 199 197 193 198 196 196 196 196 197 197 197 196 198 195 193 195 194 193 194 194 196 194 195 195 197
288 289 286 280 281 273 264 266 264 261 273 267 269 266 254 253 250 241 236 237 234 216 204 200 198 201 193 195 200 196 199 198 202 199 199 196 200 199 198 198 195 192 195 194 197 197 198 197 199
296 287 281 281 285 286 277 277 275 275 272 268 271 263 256 257 251 235 245 233 233 222 206 196 197 198 193 194 196 195 200 195 203 202 201 197 200 201 200 203 195 194 198 196 195 196 200 206 201
284 280 275 279 279 273 272 270 270 265 264 259 260 268 263 262 257 254 234 237 234 229 208 199 202 197 197 197 198 199 198 198 200 205 199 201 202 203 201 206 199 195 200 195 191 195 197 208 207
282 278 284 286 292 287 285 277 271 266 265 265 264 258 256 259 258 261 252 239 231 233 207 201 206 197 198 200 201 203 199 204 201 203 200 200 205 207 204 206 206 198 199 196 194 195 201 199 209
282 286 291 291 284 275 277 281 273 278 266 243 233 239 248 246 247 257 266 254 220 235 207 204 208 200 198 202 204 201 200 197 203 201 199 203 208 207 207 207 210 204 200 200 197 198 203 204 204
286 301 291 287 283 284 273 265 269 263 255 254 257 262 238 236 241 245 247 257 252 216 205 203 206 201 202 199 208 205 204 205 201 199 202 209 210 211 208 208 209 210 203 206 198 200 202 208 210
279 274 282 274 254 256 262 260 270 266 266 264 249 243 256 260 245 236 244 247 250 234 197 200 203 206 205 200 202 210 205 203 198 201 205 203 210 210 209 208 209 211 208 205 204 201 203 205 211
286 310 299 288 235 242 268 258 262 324 352 328 310 328 291 243 254 258 238 236 244 243 202 196 201 213 204 203 203 212 208 205 201 201 202 200 204 211 206 205 207 210 211 208 206 204 205 207 210
296 307 285 299 319 309 310 271 28 29 13 7 358 354 344 344 339 282 267 270 238 245 245 195 204 210 210 205 205 206 212 208 207 204 202 202 204 205 206 205 207 208 209 210 208 209 208 209 213
299 298 309 291 282 272 273 302 20 2 359 2 353 348 342 338 335 325 308 258 259 241 234 233 200 205 214 209 205 206 209 210 209 208 206 206 205 203 204 205 207 209 209 208 207 210 212 212 213
316 294 306 281 285 300 292 308 340 9 344 351 354 340 336 336 329 323 315 301 254 247 233 227 215 204 207 214 208 207 207 210 211 211 208 207 207 205 201 204 206 208 210 209 209 212 213 212 215
301 307 280 295 268 301 320 314 352 8 324 339 344 330 331 332 326 316 308 294 280 254 244 229 211 212 207 211 209 208 209 210 211 211 211 210 208 206 204 204 205 207 210 211 211 213 213 215 215
296 16 15 344 334 310 287 292 312 343 337 348 343 336 335 326 322 314 304 309 313 280 247 240 221 217 209 211 213 209 210 208 210 213 211 211 210 208 209 208 206 207 209 211 212 213 214 215 216
Height
787 787 785 779 785 766 760 743 727 740 744 732 730 734 735 719 734 760 742 746 750 759 767 773 779 783 787 792 796 800 803 807 811 813 815 818 820 822 824 826 827 829 831 833 834 835 837 838 839
788 787 783 772 784 769 746 723 744 732 736 738 737 739 741 743 725 739 744 750 754 761 767 773 779 783 788 793 797 801 805 808 812 815 818 820 822 824 826 828 830 832 833 835 837 838 840 841 842
789 786 779 773 773 770 745 734 735 730 739 739 740 733 733 734 730 732 745 751 756 763 768 772 778 783 788 793 798 802 806 810 813 817 819 822 824 826 828 831 833 835 836 838 839 841 842 843 844
786 780 775 783 772 746 742 733 741 740 739 739 738 745 730 733 737 741 748 752 757 764 769 770 776 783 788 794 799 803 807 811 815 819 821 823 826 829 831 833 835 838 839 841 842 844 845 846 847
786 773 776 770 765 750 737 738 742 748 741 744 741 747 741 734 743 747 750 753 758 763 770 772 776 782 788 794 799 804 808 812 817 820 823 825 828 831 833 836 838 840 842 844 845 846 848 849 850
781 772 780 772 756 741 735 736 746 748 742 739 743 743 737 741 744 748 752 755 760 764 770 775 777 783 788 795 800 805 809 813 818 821 824 827 830 832 835 838 840 842 844 846 848 849 850 851 852
783 772 776 765 757 746 738 732 750 749 743 740 733 745 734 738 747 749 753 757 762 767 772 776 781 783 788 794 801 806 810 814 819 822 825 829 832 834 837 840 843 844 846 848 850 851 853 853 854
780 777 776 762 768 758 735 737 741 747 742 729 732 745 741 740 749 752 754 758 763 768 774 778 783 786 789 794 800 807 811 816 819 823 826 829 833 835 838 841 844 847 848 850 852 853 855 855 856
776 787 779 769 762 759 741 753 738 737 739 733 733 736 740 747 750 752 755 760 764 770 775 779 782 787 791 795 800 806 812 816 821 824 826 830 835 837 840 843 845 848 850 852 854 855 857 858 858
780 775 764 753 751 750 747 747 749 746 741 740 736 736 747 749 750 751 753 758 764 769 774 777 781 786 791 796 799 805 812 816 821 824 826 831 834 838 841 843 846 848 850 853 855 856 858 859 861
769 768 758 752 744 742 753 750 747 751 751 738 737 733 737 747 748 751 751 755 761 768 773 776 781 784 788 792 798 804 809 815 819 823 826 830 833 837 840 842 845 848 850 853 854 856 858 859 859
771 759 756 755 752 749 750 749 751 749 745 737 732 732 734 739 742 746 748 750 756 763 770 774 779 784 787 790 796 801 805 810 816 819 823 827 830 834 837 840 844 847 850 853 854 856 857 858 859
767 762 756 753 753 749 747 751 750 744 742 741 739 737 736 737 742 740 744 746 750 757 764 770 776 781 785 788 793 798 802 807 812 817 821 824 827 830 834 837 841 844 848 850 852 853 855 857 858
771 766 763 761 760 755 754 750 752 730 743 741 741 739 737 736 738 739 740 742 745 751 758 765 771 778 783 785 790 794 800 804 809 813 818 821 824 827 831 835 838 841 844 847 850 851 854 856 857
775 776 767 758 753 751 751 754 748 728 740 739 732 731 732 730 731 732 735 736 738 745 752 760 766 773 779 782 787 792 797 801 806 810 815 819 821 824 829 832 835 838 841 844 848 850 853 855 856
781 774 768 744 740 736 741 740 731 729 732 731 728 725 726 726 724 722 725 727 729 736 744 753 760 766 773 779 782 787 791 797 802 807 811 816 819 821 826 829 832 835 839 843 845 848 850 852 854
767 766 753 742 732 730 730 729 724 720 724 725 722 716 715 715 715 718 719 719 721 728 737 745 754 759 766 773 778 782 787 792 797 802 807 811 816 819 822 825 829 833 836 840 843 846 848 850 851
763 755 744 741 734 732 731 725 724 721 719 721 717 710 709 706 705 707 710 713 714 720 727 737 746 754 760 768 774 778 782 788 792 796 801 806 811 815 819 821 825 829 833 836 840 843 845 846 848
773 772 765 754 746 749 742 734 728 725 725 723 716 711 708 704 699 701 704 704 707 711 718 728 737 746 754 760 765 769 772 778 785 789 795 801 806 810 814 817 820 824 828 831 836 840 843 845 846
779 774 766 755 748 748 741 734 727 727 723 721 720 715 707 703 698 691 695 699 700 704 709 719 729 738 745 752 755 760 766 771 778 784 788 795 800 805 808 812 815 819 823 827 831 835 838 842 843
777 773 765 759 749 744 744 737 731 725 721 717 712 709 707 703 701 694 691 691 695 697 701 711 721 729 737 744 752 758 763 768 772 776 781 787 793 798 802 806 810 813 817 821 825 829 832 836 839
780 771 767 762 758 754 736 732 715 707 701 697 699 701 702 700 701 698 692 685 687 690 696 705 713 721 729 738 742 745 747 752 757 764 773 780 786 791 795 800 804 808 811 814 818 824 828 831 833
781 772 769 765 759 751 743 735 715 705 703 700 695 688 684 689 691 692 691 685 679 682 689 698 706 712 720 727 734 737 739 743 751 760 768 774 778 783 787 792 797 801 804 809 811 816 821 825 827
771 772 764 754 749 759 739 732 717 705 695 685 680 681 680 680 679 681 683 683 676 675 681 690 698 702 710 716 724 727 730 734 742 750 756 763 769 772 777 782 788 794 797 801 805 809 814 817 821
781 781 776 758 750 747 719 713 698 685 688 683 683 680 674 672 673 670 671 673 672 669 672 681 690 695 699 706 713 719 723 728 731 738 745 751 757 761 764 772 777 783 790 794 799 803 806 811 813
775 775 790 780 757 742 716 715 703 708 709 707 707 704 698 694 687 673 671 668 667 666 666 671 679 687 690 695 701 710 716 721 724 729 734 739 743 748 755 760 767 773 780 787 792 796 799 803 807
779 782 776 778 760 750 718 703 708 724 715 711 707 709 711 708 701 691 674 667 663 660 663 663 668 677 684 687 693 700 708 714 717 720 724 729 733 738 746 752 758 764 771 776 782 787 790 795 798
784 778 787 776 776 757 722 719 727 722 728 713 711 715 715 714 708 698 686 669 659 654 654 656 661 667 673 681 686 691 695 702 707 713 715 720 725 731 736 742 748 755 761 767 772 776 781 785 788
784 785 807 788 777 771 753 726 716 737 727 713 715 714 718 720 716 704 692 668 659 651 647 650 653 658 664 671 676 681 686 692 700 703 706 711 717 723 728 732 738 745 751 757 762 765 770 774 778
779 805 800 800 793 789 770 740 716 720 716 716 717 715 720 725 722 709 693 667 655 650 645 643 645 650 654 660 667 671 676 684 689 692 696 702 707 714 719 724 729 735 741 747 751 755 759 763 767